When you browse on this site, cookies collect data to enhance your experience and personalize the content and advertising you see.
Visit our Privacy Policy to learn more. By continuing to use the site, you agree to this use of cookies and data.
  • In Portugal
  • List of Countries
  • For 7 days
  • Water Temperature
  • Satellite Maps
  • Weather Map
  • Weather Widgets
  • user-avatar
    Login

    Hourly Weather Saga

    Today, 19 February, Tuesday

    Time Temperature Precipitation Wind Pressure Humidity
    00:00 +10°C° 0.3 mm 1 mps 766 mmHg 78%
    01:00 +10°C° 0.9 mm 1 mps 765 mmHg 82%
    02:00 +10°C° 0.9 mm 1 mps 765 mmHg 85%
    03:00 +10°C° 0 mm 1 mps 764 mmHg 90%
    04:00 +11°C° 1.9 mm 1 mps 763 mmHg 91%
    05:00 +10°C° 1.9 mm 2 mps 762 mmHg 92%
    06:00 +10°C° 1.9 mm 2 mps 761 mmHg 93%
    07:00 +12°C° 1.7 mm 2 mps 761 mmHg 93%
    08:00 +12°C° 1.7 mm 2 mps 760 mmHg 93%
    09:00 +13°C° 0 mm 5 mps 759 mmHg 93%
    10:00 +14°C° 2.1 mm 5 mps 759 mmHg 94%
    11:00 +15°C° 2.1 mm 4 mps 759 mmHg 95%
    12:00 +17°C° 2.1 mm 4 mps 759 mmHg 95%
    13:00 +17°C° 0.1 mm 5 mps 759 mmHg 88%
    14:00 +19°C° 0.1 mm 5 mps 759 mmHg 81%
    15:00 +20°C° 0 mm 5 mps 759 mmHg 76%
    16:00 +18°C° 0 mm 4 mps 760 mmHg 79%
    17:00 +17°C° 0 mm 3 mps 760 mmHg 82%
    18:00 +16°C° 0 mm 3 mps 761 mmHg 85%
    19:00 +14°C° 0 mm 3 mps 761 mmHg 84%
    20:00 +14°C° 0 mm 3 mps 762 mmHg 83%
    21:00 +13°C° 0 mm 3 mps 763 mmHg 83%
    22:00 +13°C° 0 mm 3 mps 763 mmHg 82%
    23:00 +12°C° 0 mm 3 mps 763 mmHg 82%

    Tomorrow, 20 February, Wednesday

    Time Temperature Precipitation Wind Pressure Humidity
    00:00 +12°C° 0 mm 3 mps 764 mmHg 81%
    01:00 +11°C° 0 mm 3 mps 764 mmHg 80%
    02:00 +11°C° 0 mm 3 mps 764 mmHg 79%
    03:00 +11°C° 0 mm 3 mps 764 mmHg 78%
    04:00 +10°C° 0 mm 3 mps 764 mmHg 78%
    05:00 +10°C° 0 mm 3 mps 765 mmHg 77%
    06:00 +10°C° 0 mm 3 mps 765 mmHg 76%
    07:00 +10°C° 0 mm 4 mps 765 mmHg 75%
    08:00 +10°C° 0 mm 4 mps 766 mmHg 73%
    09:00 +10°C° 0 mm 4 mps 766 mmHg 72%
    10:00 +10°C° 0 mm 4 mps 766 mmHg 70%
    11:00 +10°C° 0 mm 4 mps 767 mmHg 68%
    12:00 +10°C° 0 mm 4 mps 767 mmHg 66%
    13:00 +10°C° 0 mm 4 mps 766 mmHg 65%
    14:00 +10°C° 0 mm 4 mps 766 mmHg 63%
    15:00 +11°C° 0 mm 3 mps 766 mmHg 62%
    16:00 +10°C° 0 mm 3 mps 766 mmHg 63%
    17:00 +10°C° 0 mm 3 mps 766 mmHg 64%
    18:00 +9°C° 0 mm 3 mps 767 mmHg 65%
    19:00 +9°C° 0 mm 2 mps 767 mmHg 66%
    20:00 +9°C° 0 mm 2 mps 767 mmHg 68%
    21:00 +8°C° 0 mm 2 mps 768 mmHg 69%
    22:00 +9°C° 0 mm 1 mps 768 mmHg 70%
    23:00 +9°C° 0 mm 1 mps 768 mmHg 70%

    Day after tomorrow, 21 February, Thursday

    Time Temperature Precipitation Wind Pressure Humidity
    00:00 +9°C° 0 mm 1 mps 768 mmHg 71%
    01:00 +8°C° 0 mm 1 mps 768 mmHg 72%
    02:00 +8°C° 0 mm 1 mps 768 mmHg 72%
    03:00 +8°C° 0 mm 1 mps 768 mmHg 73%
    04:00 +8°C° 0 mm 1 mps 767 mmHg 72%
    05:00 +8°C° 0 mm 1 mps 767 mmHg 72%
    06:00 +8°C° 0 mm 1 mps 767 mmHg 71%
    07:00 +8°C° 0 mm 2 mps 767 mmHg 68%
    08:00 +8°C° 0 mm 2 mps 768 mmHg 64%
    09:00 +9°C° 0 mm 2 mps 768 mmHg 61%
    10:00 +10°C° 0 mm 2 mps 768 mmHg 56%
    11:00 +12°C° 0 mm 2 mps 768 mmHg 51%
    12:00 +14°C° 0 mm 2 mps 768 mmHg 47%
    13:00 +14°C° 0 mm 2 mps 768 mmHg 45%
    14:00 +14°C° 0 mm 2 mps 767 mmHg 43%
    15:00 +15°C° 0 mm 2 mps 766 mmHg 41%
    16:00 +13°C° 0 mm 3 mps 766 mmHg 45%
    17:00 +12°C° 0 mm 3 mps 766 mmHg 49%
    18:00 +11°C° 0 mm 3 mps 766 mmHg 53%
    19:00 +10°C° 0 mm 3 mps 767 mmHg 56%
    20:00 +10°C° 0 mm 3 mps 767 mmHg 58%
    21:00 +9°C° 0 mm 2 mps 767 mmHg 61%
    22:00 +9°C° 0 mm 2 mps 767 mmHg 62%
    23:00 +9°C° 0 mm 2 mps 767 mmHg 63%

    22 February, Friday

    Time Temperature Precipitation Wind Pressure Humidity
    00:00 +8°C° 0 mm 2 mps 766 mmHg 65%
    01:00 +8°C° 0 mm 2 mps 766 mmHg 65%
    02:00 +9°C° 0 mm 1 mps 766 mmHg 66%
    03:00 +9°C° 0 mm 1 mps 766 mmHg 67%
    04:00 +9°C° 0 mm 1 mps 765 mmHg 67%
    05:00 +9°C° 0 mm 1 mps 765 mmHg 66%
    06:00 +9°C° 0 mm 1 mps 764 mmHg 66%
    07:00 +9°C° 0.1 mm 1 mps 764 mmHg 66%
    08:00 +10°C° 0.1 mm 1 mps 765 mmHg 65%
    09:00 +10°C° 0.1 mm 1 mps 765 mmHg 64%
    10:00 +11°C° 0.4 mm 1 mps 764 mmHg 64%
    11:00 +11°C° 0.4 mm 1 mps 764 mmHg 63%
    12:00 +12°C° 0.4 mm 1 mps 763 mmHg 63%
    13:00 +11°C° 1.3 mm 1 mps 762 mmHg 67%
    14:00 +11°C° 1.3 mm 1 mps 761 mmHg 72%
    15:00 +11°C° 1.3 mm 1 mps 760 mmHg 77%
    16:00 +10°C° 2.9 mm 1 mps 760 mmHg 81%
    17:00 +10°C° 2.9 mm 1 mps 760 mmHg 85%
    18:00 +8°C° 2.9 mm 2 mps 759 mmHg 89%
    19:00 +9°C° 1.3 mm 2 mps 759 mmHg 89%
    20:00 +9°C° 1.3 mm 2 mps 759 mmHg 89%
    21:00 +9°C° 1.3 mm 2 mps 760 mmHg 90%
    22:00 +9°C° 0.4 mm 3 mps 760 mmHg 89%
    23:00 +9°C° 0.4 mm 3 mps 760 mmHg 89%

    23 February, Saturday

    Time Temperature Precipitation Wind Pressure Humidity
    00:00 +9°C° 0.4 mm 3 mps 760 mmHg 89%
    01:00 +9°C° 0.4 mm 3 mps 760 mmHg 87%
    02:00 +9°C° 0.4 mm 3 mps 759 mmHg 86%
    03:00 +9°C° 0.4 mm 3 mps 759 mmHg 84%
    04:00 +9°C° 0 mm 3 mps 759 mmHg 83%
    05:00 +9°C° 0 mm 2 mps 759 mmHg 83%
    06:00 +8°C° 0 mm 2 mps 759 mmHg 82%
    07:00 +9°C° 0.1 mm 2 mps 760 mmHg 81%
    08:00 +9°C° 0.1 mm 2 mps 761 mmHg 80%
    09:00 +10°C° 0.1 mm 3 mps 761 mmHg 79%
    10:00 +10°C° 0.4 mm 3 mps 761 mmHg 77%
    11:00 +10°C° 0.4 mm 3 mps 761 mmHg 75%
    12:00 +11°C° 0.4 mm 3 mps 761 mmHg 72%
    13:00 +11°C° 0.2 mm 3 mps 761 mmHg 67%
    14:00 +12°C° 0.2 mm 4 mps 761 mmHg 61%
    15:00 +13°C° 0.2 mm 4 mps 761 mmHg 56%
    16:00 +12°C° 0 mm 4 mps 762 mmHg 57%
    17:00 +11°C° 0 mm 4 mps 762 mmHg 58%
    18:00 +11°C° 0 mm 4 mps 763 mmHg 59%
    19:00 +10°C° 0 mm 4 mps 763 mmHg 62%
    20:00 +8°C° 0 mm 4 mps 764 mmHg 64%
    21:00 +8°C° 0 mm 5 mps 765 mmHg 67%
    22:00 +7°C° 0 mm 4 mps 765 mmHg 66%
    23:00 +7°C° 0 mm 4 mps 766 mmHg 65%

    24 February, Sunday

    Time Temperature Precipitation Wind Pressure Humidity
    00:00 +6°C° 0 mm 4 mps 766 mmHg 65%
    01:00 +7°C° 0 mm 3 mps 766 mmHg 66%
    02:00 +7°C° 0 mm 3 mps 766 mmHg 66%
    03:00 +7°C° 0 mm 3 mps 766 mmHg 67%
    04:00 +7°C° 0 mm 3 mps 766 mmHg 67%
    05:00 +5°C° 0 mm 3 mps 767 mmHg 68%
    06:00 +5°C° 0 mm 3 mps 767 mmHg 68%
    07:00 +7°C° 0 mm 3 mps 767 mmHg 64%
    08:00 +8°C° 0 mm 3 mps 767 mmHg 61%
    09:00 +8°C° 0 mm 3 mps 768 mmHg 57%
    10:00 +10°C° 0 mm 3 mps 767 mmHg 52%
    11:00 +11°C° 0 mm 3 mps 767 mmHg 47%
    12:00 +13°C° 0 mm 2 mps 767 mmHg 42%
    13:00 +12°C° 0 mm 3 mps 767 mmHg 42%
    14:00 +13°C° 0 mm 3 mps 766 mmHg 42%
    15:00 +13°C° 0 mm 3 mps 766 mmHg 42%
    16:00 +12°C° 0 mm 3 mps 766 mmHg 45%
    17:00 +12°C° 0 mm 2 mps 766 mmHg 48%
    18:00 +12°C° 0 mm 2 mps 766 mmHg 51%
    19:00 +10°C° 0 mm 2 mps 766 mmHg 54%
    20:00 +11°C° 0 mm 1 mps 766 mmHg 56%
    21:00 +10°C° 0 mm 1 mps 767 mmHg 59%
    22:00 +10°C° 0 mm 1 mps 766 mmHg 60%
    23:00 +10°C° 0 mm 1 mps 766 mmHg 60%
    Show more